Time,TemperatureF,DewpointF,PressureIn,WindDirection,WindDirectionDegrees,WindSpeedMPH,WindSpeedGustMPH,Humidity,HourlyPrecipIn,Conditions,Clouds,dailyrainin,SolarRadiationWatts/m^2,SoftwareType,DateUTC
2013-01-17 00:01:00,32.0,26.0,-100.00,West,273,6.0,12.0,78,0.00,,,0.00,0.000000,,2013-01-17 05:01:00,
2013-01-17 00:33:00,32.0,26.0,-100.00,West,273,6.0,12.0,78,0.00,,,0.00,0.000000,,2013-01-17 05:33:00,
2013-01-17 00:43:00,32.0,26.0,-100.00,West,273,6.0,12.0,78,0.00,,,0.00,0.000000,,2013-01-17 05:43:00,
2013-01-17 00:53:00,32.0,26.0,-100.00,West,273,6.0,12.0,78,0.00,,,0.00,0.000000,,2013-01-17 05:53:00,
2013-01-17 01:01:00,32.0,26.0,-100.00,West,277,5.0,14.0,78,0.00,,,0.00,0.000000,,2013-01-17 06:01:00,
2013-01-17 01:33:00,32.0,26.0,-100.00,West,277,5.0,14.0,78,0.00,,,0.00,0.000000,,2013-01-17 06:33:00,
2013-01-17 01:42:00,32.0,26.0,-100.00,West,277,5.0,14.0,78,0.00,,,0.00,0.000000,,2013-01-17 06:42:00,
2013-01-17 01:53:00,32.0,26.0,-100.00,West,277,5.0,14.0,78,0.00,,,0.00,0.000000,,2013-01-17 06:53:00,
2013-01-17 02:01:00,32.0,26.0,-100.00,WNW,300,5.0,23.0,79,0.00,,,0.00,0.000000,,2013-01-17 07:01:00,
2013-01-17 02:33:00,32.0,26.0,-100.00,WNW,300,5.0,23.0,79,0.00,,,0.00,0.000000,,2013-01-17 07:33:00,
2013-01-17 02:43:00,32.0,26.0,-100.00,WNW,300,5.0,23.0,79,0.00,,,0.00,0.000000,,2013-01-17 07:43:00,
2013-01-17 02:53:00,32.0,26.0,-100.00,WNW,300,5.0,23.0,79,0.00,,,0.00,0.000000,,2013-01-17 07:53:00,
2013-01-17 03:01:00,32.0,26.0,-100.00,WNW,289,4.0,12.0,79,0.00,,,0.00,0.000000,,2013-01-17 08:01:00,
2013-01-17 03:22:00,32.0,26.0,-100.00,WNW,289,4.0,12.0,79,0.00,,,0.00,0.000000,,2013-01-17 08:22:00,
2013-01-17 03:32:00,32.0,26.0,-100.00,WNW,289,4.0,12.0,79,0.00,,,0.00,0.000000,,2013-01-17 08:32:00,
2013-01-17 03:43:00,32.0,26.0,-100.00,WNW,289,4.0,12.0,79,0.00,,,0.00,0.000000,,2013-01-17 08:43:00,
2013-01-17 03:53:00,32.0,26.0,-100.00,WNW,289,4.0,12.0,79,0.00,,,0.00,0.000000,,2013-01-17 08:53:00,
2013-01-17 04:01:00,29.0,23.0,-100.00,West,276,2.0,8.0,79,0.00,,,0.00,0.000000,,2013-01-17 09:01:00,
2013-01-17 04:33:00,29.0,23.0,-100.00,West,276,2.0,8.0,79,0.00,,,0.00,0.000000,,2013-01-17 09:33:00,
2013-01-17 04:43:00,29.0,23.0,-100.00,West,276,2.0,8.0,79,0.00,,,0.00,0.000000,,2013-01-17 09:43:00,
2013-01-17 04:53:00,29.0,23.0,-100.00,West,276,2.0,8.0,79,0.00,,,0.00,0.000000,,2013-01-17 09:53:00,
2013-01-17 05:01:00,30.0,24.0,-100.00,WNW,287,3.0,7.0,79,0.00,,,0.00,0.000000,,2013-01-17 10:01:00,
2013-01-17 05:33:00,30.0,24.0,-100.00,WNW,287,3.0,7.0,79,0.00,,,0.00,0.000000,,2013-01-17 10:33:00,
2013-01-17 05:43:00,30.0,24.0,-100.00,WNW,287,3.0,7.0,79,0.00,,,0.00,0.000000,,2013-01-17 10:43:00,
2013-01-17 05:53:00,30.0,24.0,-100.00,WNW,287,3.0,7.0,79,0.00,,,0.00,0.000000,,2013-01-17 10:53:00,
2013-01-17 06:01:00,28.0,23.0,-100.00,NNW,343,6.0,14.0,80,0.00,,,0.00,0.000000,,2013-01-17 11:01:00,
2013-01-17 06:23:00,28.0,23.0,-100.00,NNW,343,6.0,14.0,80,0.00,,,0.00,0.000000,,2013-01-17 11:23:00,
2013-01-17 06:33:00,28.0,23.0,-100.00,NNW,343,6.0,14.0,80,0.00,,,0.00,0.000000,,2013-01-17 11:33:00,
2013-01-17 06:43:00,28.0,23.0,-100.00,NNW,343,6.0,14.0,80,0.00,,,0.00,0.000000,,2013-01-17 11:43:00,
2013-01-17 06:53:00,28.0,23.0,-100.00,NNW,343,6.0,14.0,80,0.00,,,0.00,0.000000,,2013-01-17 11:53:00,
2013-01-17 07:01:00,28.0,23.0,-100.00,North,353,4.0,12.0,80,0.00,,,0.00,0.000000,,2013-01-17 12:01:00,
2013-01-17 07:23:00,28.0,23.0,-100.00,North,353,4.0,12.0,80,0.00,,,0.00,0.000000,,2013-01-17 12:23:00,
2013-01-17 07:33:00,28.0,23.0,-100.00,North,353,4.0,12.0,80,0.00,,,0.00,0.000000,,2013-01-17 12:33:00,
2013-01-17 07:43:00,28.0,23.0,-100.00,North,353,4.0,12.0,80,0.00,,,0.00,0.000000,,2013-01-17 12:43:00,
2013-01-17 07:53:00,28.0,23.0,-100.00,North,353,4.0,12.0,80,0.00,,,0.00,0.000000,,2013-01-17 12:53:00,
2013-01-17 08:01:00,27.0,22.0,-100.00,NW,325,3.0,7.0,80,0.00,,,0.00,0.000000,,2013-01-17 13:01:00,
2013-01-17 08:33:00,27.0,22.0,-100.00,NW,325,3.0,7.0,80,0.00,,,0.00,0.000000,,2013-01-17 13:33:00,
2013-01-17 08:43:00,27.0,22.0,-100.00,NW,325,3.0,7.0,80,0.00,,,0.00,0.000000,,2013-01-17 13:43:00,
2013-01-17 08:53:00,27.0,22.0,-100.00,NW,325,3.0,7.0,80,0.00,,,0.00,0.000000,,2013-01-17 13:53:00,
2013-01-17 09:01:00,27.0,22.0,-100.00,NNW,348,4.0,7.0,80,0.00,,,0.00,16.000000,,2013-01-17 14:01:00,
2013-01-17 09:33:00,27.0,22.0,-100.00,NNW,348,4.0,7.0,80,0.00,,,0.00,16.000000,,2013-01-17 14:33:00,
2013-01-17 09:43:00,27.0,22.0,-100.00,NNW,348,4.0,7.0,80,0.00,,,0.00,16.000000,,2013-01-17 14:43:00,
2013-01-17 09:53:00,27.0,22.0,-100.00,NNW,348,4.0,7.0,80,0.00,,,0.00,16.000000,,2013-01-17 14:53:00,
2013-01-17 10:01:00,29.0,23.0,-100.00,NNW,331,5.0,11.0,79,0.00,,,0.00,219.000000,,2013-01-17 15:01:00,
2013-01-17 10:33:00,29.0,23.0,-100.00,NNW,331,5.0,11.0,79,0.00,,,0.00,219.000000,,2013-01-17 15:33:00,
2013-01-17 10:43:00,29.0,23.0,-100.00,NNW,331,5.0,11.0,79,0.00,,,0.00,219.000000,,2013-01-17 15:43:00,
2013-01-17 10:53:00,29.0,23.0,-100.00,NNW,331,5.0,11.0,79,0.00,,,0.00,219.000000,,2013-01-17 15:53:00,
2013-01-17 11:01:00,30.0,24.0,-100.00,NW,323,7.0,14.0,79,0.00,,,0.00,310.000000,,2013-01-17 16:01:00,
2013-01-17 11:34:00,30.0,24.0,-100.00,NW,323,7.0,14.0,79,0.00,,,0.00,310.000000,,2013-01-17 16:34:00,
2013-01-17 11:44:00,30.0,24.0,-100.00,NW,323,7.0,14.0,79,0.00,,,0.00,310.000000,,2013-01-17 16:44:00,
2013-01-17 11:53:00,30.0,24.0,-100.00,NW,323,7.0,14.0,79,0.00,,,0.00,310.000000,,2013-01-17 16:53:00,
2013-01-17 12:01:00,32.0,26.0,-100.00,NW,305,7.0,19.0,79,0.00,,,0.00,403.000000,,2013-01-17 17:01:00,
2013-01-17 12:33:00,32.0,26.0,-100.00,NW,305,7.0,19.0,79,0.00,,,0.00,403.000000,,2013-01-17 17:33:00,
2013-01-17 12:43:00,32.0,26.0,-100.00,NW,305,7.0,19.0,79,0.00,,,0.00,403.000000,,2013-01-17 17:43:00,
2013-01-17 12:54:00,32.0,26.0,-100.00,NW,305,7.0,19.0,79,0.00,,,0.00,403.000000,,2013-01-17 17:54:00,
2013-01-17 13:01:00,30.0,24.0,-100.00,NW,304,9.0,21.0,78,0.00,,,0.00,334.000000,,2013-01-17 18:01:00,
2013-01-17 13:23:00,30.0,24.0,-100.00,NW,304,9.0,21.0,78,0.00,,,0.00,334.000000,,2013-01-17 18:23:00,
2013-01-17 13:34:00,30.0,24.0,-100.00,NW,304,9.0,21.0,78,0.00,,,0.00,334.000000,,2013-01-17 18:34:00,
2013-01-17 13:44:00,30.0,24.0,-100.00,NW,304,9.0,21.0,78,0.00,,,0.00,334.000000,,2013-01-17 18:44:00,
2013-01-17 13:53:00,30.0,24.0,-100.00,NW,304,9.0,21.0,78,0.00,,,0.00,334.000000,,2013-01-17 18:53:00,
2013-01-17 16:01:00,27.0,21.0,-100.00,NW,317,10.0,25.0,78,-99.99,,,0.00,140.000000,,2013-01-17 21:01:00,
2013-01-17 16:34:00,27.0,21.0,-100.00,NW,317,10.0,25.0,78,-99.99,,,0.00,140.000000,,2013-01-17 21:34:00,
2013-01-17 16:43:00,27.0,21.0,-100.00,NW,317,10.0,25.0,78,-99.99,,,0.00,140.000000,,2013-01-17 21:43:00,
2013-01-17 16:53:00,27.0,21.0,-100.00,NW,317,10.0,25.0,78,-99.99,,,0.00,140.000000,,2013-01-17 21:53:00,
2013-01-17 17:01:00,25.0,19.0,-100.00,NNW,328,10.0,22.0,78,0.00,,,0.00,60.000000,,2013-01-17 22:01:00,
2013-01-17 17:23:00,25.0,19.0,-100.00,NNW,328,10.0,22.0,78,0.00,,,0.00,60.000000,,2013-01-17 22:23:00,
2013-01-17 17:33:00,25.0,19.0,-100.00,NNW,328,10.0,22.0,78,0.00,,,0.00,60.000000,,2013-01-17 22:33:00,
2013-01-17 17:43:00,25.0,19.0,-100.00,NNW,328,10.0,22.0,78,0.00,,,0.00,60.000000,,2013-01-17 22:43:00,
2013-01-17 17:53:00,25.0,19.0,-100.00,NNW,328,10.0,22.0,78,0.00,,,0.00,60.000000,,2013-01-17 22:53:00,
2013-01-17 18:01:00,23.0,17.0,-100.00,NW,306,9.0,24.0,78,0.00,,,0.00,8.000000,,2013-01-17 23:01:00,
2013-01-17 18:33:00,23.0,17.0,-100.00,NW,306,9.0,24.0,78,0.00,,,0.00,8.000000,,2013-01-17 23:33:00,
2013-01-17 18:43:00,23.0,17.0,-100.00,NW,306,9.0,24.0,78,0.00,,,0.00,8.000000,,2013-01-17 23:43:00,
2013-01-17 18:53:00,23.0,17.0,-100.00,NW,306,9.0,24.0,78,0.00,,,0.00,8.000000,,2013-01-17 23:53:00,
2013-01-17 19:01:00,22.0,16.0,-100.00,NW,316,12.0,29.0,79,0.00,,,0.00,0.000000,,2013-01-18 00:01:00,
2013-01-17 19:23:00,22.0,16.0,-100.00,NW,316,12.0,29.0,79,0.00,,,0.00,0.000000,,2013-01-18 00:23:00,
2013-01-17 19:33:00,22.0,16.0,-100.00,NW,316,12.0,29.0,79,0.00,,,0.00,0.000000,,2013-01-18 00:33:00,
2013-01-17 19:43:00,22.0,16.0,-100.00,NW,316,12.0,29.0,79,0.00,,,0.00,0.000000,,2013-01-18 00:43:00,
2013-01-17 19:53:00,22.0,16.0,-100.00,NW,316,12.0,29.0,79,0.00,,,0.00,0.000000,,2013-01-18 00:53:00,
2013-01-17 20:01:00,18.0,13.0,-100.00,NW,326,11.0,30.0,79,0.00,,,0.00,0.000000,,2013-01-18 01:01:00,
2013-01-17 20:33:00,18.0,13.0,-100.00,NW,326,11.0,30.0,79,0.00,,,0.00,0.000000,,2013-01-18 01:33:00,
2013-01-17 20:43:00,18.0,13.0,-100.00,NW,326,11.0,30.0,79,0.00,,,0.00,0.000000,,2013-01-18 01:43:00,
2013-01-17 20:53:00,18.0,13.0,-100.00,NW,326,11.0,30.0,79,0.00,,,0.00,0.000000,,2013-01-18 01:53:00,
2013-01-17 21:01:00,17.0,12.0,-100.00,NNW,327,10.0,23.0,79,0.00,,,0.00,0.000000,,2013-01-18 02:01:00,
2013-01-17 21:33:00,17.0,12.0,-100.00,NNW,327,10.0,23.0,79,0.00,,,0.00,0.000000,,2013-01-18 02:33:00,
2013-01-17 21:43:00,17.0,12.0,-100.00,NNW,327,10.0,23.0,79,0.00,,,0.00,0.000000,,2013-01-18 02:43:00,
2013-01-17 21:53:00,17.0,12.0,-100.00,NNW,327,10.0,23.0,79,0.00,,,0.00,0.000000,,2013-01-18 02:53:00,
2013-01-17 22:01:00,17.0,12.0,-100.00,NNW,328,7.0,22.0,79,0.00,,,0.00,0.000000,,2013-01-18 03:01:00,
2013-01-17 22:33:00,17.0,12.0,-100.00,NNW,328,7.0,22.0,79,0.00,,,0.00,0.000000,,2013-01-18 03:33:00,
2013-01-17 22:43:00,17.0,12.0,-100.00,NNW,328,7.0,22.0,79,0.00,,,0.00,0.000000,,2013-01-18 03:43:00,
2013-01-17 22:53:00,17.0,12.0,-100.00,NNW,328,7.0,22.0,79,0.00,,,0.00,0.000000,,2013-01-18 03:53:00,
2013-01-17 23:01:00,16.0,11.0,-100.00,NNW,328,9.0,16.0,79,0.00,,,0.00,0.000000,,2013-01-18 04:01:00,
2013-01-17 23:33:00,16.0,11.0,-100.00,NNW,328,9.0,16.0,79,0.00,,,0.00,0.000000,,2013-01-18 04:33:00,
2013-01-17 23:43:00,16.0,11.0,-100.00,NNW,328,9.0,16.0,79,0.00,,,0.00,0.000000,,2013-01-18 04:43:00,
2013-01-17 23:53:00,16.0,11.0,-100.00,NNW,328,9.0,16.0,79,0.00,,,0.00,0.000000,,2013-01-18 04:53:00,